{"data":{"norad_id":39498,"epoch":"2026-09-20T00:12:21.586752Z","epoch_age_seconds":64334,"freshness":"FRESH","line1":"1 39498U 14001A   26263.00858318 -.00000082  00000+0  00000+0 0  9990","line2":"2 39498   0.0178 201.5857 0005277  17.6675 216.7606  1.00272712 46327","mean_motion":1.00272712,"eccentricity":0.0005277,"inclination_deg":0.0178,"raan_deg":201.5857,"arg_perigee_deg":17.6675,"mean_anomaly_deg":216.7606,"bstar":0,"rev_number":4632,"period_min":1436.0836276175,"perigee_km":35764.084899519,"apogee_km":35808.585283364,"semimajor_km":42164.472091442,"source":"CELESTRAK","updated_at":"2026-09-20T09:00:35.208361Z"}}